Location: Bethel Church
(38.0159°N, 88.7292°W)
Time: 06:50:06
(UTC+00:00)

CZ-2C R/B - Pass Details

Date: 08 December 2021
Orbit: 784 x 871 km, 98.2° (Epoch: 16 January)

Event Time Altitude Azimuth Distance (km) Brightness Sun altitude
Rises 23:11:54 0° 24° (NNE) 3,284 5.3 -7.3°
Reaches altitude 10° 23:14:29 10° 34° (NE) 2,348 4.5 -7.8°
Maximum altitude 23:19:02 31° 96° (E) 1,355 3.3 -8.6°
Drops below altitude 10° 23:23:34 10° 158° (SSE) 2,341 5.0 -9.5°
Sets 23:26:08 0° 169° (SSE) 3,273 5.9 -9.9°
